Location: Houhaj�rvi
(61.2833°N, 23.0000°E)
Time: 05:37:47
(UTC+00:00)

Meteor 2-4 Rocket - Pass Details

Date: 27 February 2020
Orbit: 799 x 908 km, 81.2° (Epoch: 09 April)

Event Time Altitude Azimuth Distance (km) Brightness Sun altitude
Rises 17:02:20 0° 341° (NNW) 3,515 7.2 -9.9°
Reaches altitude 10° 17:04:49 10° 345° (NNW) 2,584 6.4 -10.2°
Maximum altitude 17:10:41 61° 66° (ENE) 1,026 3.9 -10.9°
Drops below altitude 10° 17:16:34 10° 147° (SSE) 2,595 5.9 -11.6°
Sets 17:19:04 0° 150° (SSE) 3,531 6.6 -11.9°
